JAT668 SCIE-SCSE

Flight info

Callsign JAT668
Flight time 1h 10m
Altitude 36000
Route SOSTA5M SOSTA UT105 KATOS DCT DANLA DANLA3B
Aircraft A21N/M-SDFGIRWYZ/EB1

Departure

Time 2026-04-22 22:07
Airport Carriel Sur International Airport (SCIE)

Arrival

Time 2026-04-22 23:17
Airport La Florida Airport (SCSE)
Time Latitude Longitude Altitude Speed Heading
2026-04-22 21:57 -36.77543 -73.05934 65 ft 0 kts 278°
2026-04-22 21:59 -36.77542 -73.05944 62 ft 3 kts 275°
2026-04-22 21:59 -36.77539 -73.05978 64 ft 5 kts 275°
2026-04-22 21:59 -36.77537 -73.06039 59 ft 8 kts 274°
2026-04-22 21:59 -36.77524 -73.06108 60 ft 9 kts 291°
2026-04-22 22:00 -36.77498 -73.06179 61 ft 9 kts 303°
2026-04-22 22:00 -36.77434 -73.06174 58 ft 10 kts 24°
2026-04-22 22:00 -36.77367 -73.06136 58 ft 11 kts 25°
2026-04-22 22:00 -36.77298 -73.06094 56 ft 10 kts 24°
2026-04-22 22:01 -36.77251 -73.06067 60 ft 8 kts 25°
2026-04-22 22:01 -36.77200 -73.06038 58 ft 8 kts 24°
2026-04-22 22:01 -36.77144 -73.06006 63 ft 9 kts 25°
2026-04-22 22:01 -36.77084 -73.05971 66 ft 10 kts 26°
2026-04-22 22:02 -36.77020 -73.05932 63 ft 11 kts 25°
2026-04-22 22:02 -36.76974 -73.05905 66 ft 11 kts 25°
2026-04-22 22:02 -36.76908 -73.05866 64 ft 11 kts 26°
2026-04-22 22:02 -36.76835 -73.05821 59 ft 12 kts 25°
2026-04-22 22:03 -36.76751 -73.05776 60 ft 14 kts 22°
2026-04-22 22:03 -36.76658 -73.05727 63 ft 15 kts 28°
2026-04-22 22:03 -36.76561 -73.05667 59 ft 16 kts 25°
2026-04-22 22:03 -36.76457 -73.05606 60 ft 9 kts 25°
2026-04-22 22:04 -36.76438 -73.05595 66 ft 4 kts 22°
2026-04-22 22:04 -36.76405 -73.05587 60 ft 6 kts
2026-04-22 22:04 -36.76364 -73.05609 60 ft 7 kts 317°
2026-04-22 22:04 -36.76331 -73.05671 61 ft 10 kts 300°
2026-04-22 22:05 -36.76281 -73.05739 65 ft 12 kts 341°
2026-04-22 22:05 -36.76208 -73.05711 72 ft 6 kts 26°
2026-04-22 22:05 -36.76171 -73.05673 72 ft 8 kts 64°
2026-04-22 22:05 -36.76145 -73.05612 70 ft 8 kts 38°
2026-04-22 22:06 -36.76127 -73.05660 71 ft 6 kts 233°
2026-04-22 22:06 -36.76153 -73.05680 70 ft 5 kts 203°
2026-04-22 22:06 -36.76330 -73.05780 64 ft 61 kts 205°
2026-04-22 22:06 -36.76939 -73.06135 65 ft 132 kts 205°
2026-04-22 22:07 -36.77929 -73.06712 354 ft 167 kts 206°
2026-04-22 22:07 -36.79002 -73.07338 1138 ft 173 kts 207°
2026-04-22 22:07 -36.79965 -73.08249 1838 ft 181 kts 236°
2026-04-22 22:07 -36.80277 -73.09819 2253 ft 200 kts 274°
2026-04-22 22:08 -36.79660 -73.11412 2735 ft 216 kts 314°
2026-04-22 22:08 -36.78361 -73.12520 3138 ft 239 kts 327°
2026-04-22 22:08 -36.76865 -73.13629 3620 ft 258 kts 330°
2026-04-22 22:08 -36.75191 -73.14244 4285 ft 268 kts 356°
2026-04-22 22:09 -36.73350 -73.13850 5103 ft 272 kts 21°
2026-04-22 22:09 -36.71634 -73.12846 5934 ft 274 kts 26°
2026-04-22 22:09 -36.69919 -73.11773 6763 ft 277 kts 26°
2026-04-22 22:09 -36.68176 -73.10702 7540 ft 280 kts 25°
2026-04-22 22:10 -36.66410 -73.09636 8290 ft 284 kts 25°
2026-04-22 22:10 -36.64611 -73.08559 9038 ft 288 kts 24°
2026-04-22 22:10 -36.62790 -73.07482 9758 ft 291 kts 24°
2026-04-22 22:10 -36.60935 -73.06391 10332 ft 301 kts 23°
2026-04-22 22:11 -36.59005 -73.05260 10639 ft 320 kts 23°
2026-04-22 22:11 -36.56936 -73.04049 10977 ft 336 kts 23°
2026-04-22 22:11 -36.54801 -73.02796 11575 ft 342 kts 22°
2026-04-22 22:11 -36.52644 -73.01529 12280 ft 345 kts 22°
2026-04-22 22:12 -36.50463 -73.00246 12974 ft 348 kts 22°
2026-04-22 22:12 -36.48264 -72.98959 13634 ft 351 kts 22°
2026-04-22 22:12 -36.46039 -72.97663 14287 ft 355 kts 22°
2026-04-22 22:12 -36.43784 -72.96350 14905 ft 359 kts 22°
2026-04-22 22:13 -36.41518 -72.95026 15523 ft 363 kts 22°
2026-04-22 22:13 -36.39219 -72.93687 16128 ft 367 kts 22°
2026-04-22 22:13 -36.36890 -72.92331 16728 ft 371 kts 22°
2026-04-22 22:13 -36.34545 -72.90967 17315 ft 374 kts 22°
2026-04-22 22:14 -36.32167 -72.89585 17883 ft 378 kts 22°
2026-04-22 22:14 -36.29776 -72.88192 18429 ft 382 kts 22°
2026-04-22 22:14 -36.27382 -72.86801 18956 ft 386 kts 22°
2026-04-22 22:14 -36.24934 -72.85383 19495 ft 389 kts 22°
2026-04-22 22:15 -36.22468 -72.83953 19999 ft 393 kts 22°
2026-04-22 22:15 -36.19980 -72.82510 20498 ft 396 kts 22°
2026-04-22 22:15 -36.17469 -72.81051 20985 ft 400 kts 22°
2026-04-22 22:15 -36.14937 -72.79582 21462 ft 404 kts 22°
2026-04-22 22:16 -36.12380 -72.78100 21929 ft 407 kts 22°
2026-04-22 22:16 -36.09799 -72.76609 22383 ft 411 kts 22°
2026-04-22 22:16 -36.07205 -72.75108 22827 ft 414 kts 22°
2026-04-22 22:16 -36.04582 -72.73595 23255 ft 417 kts 22°
2026-04-22 22:17 -36.01935 -72.72064 23683 ft 421 kts 22°
2026-04-22 22:17 -35.99267 -72.70519 24085 ft 424 kts 22°
2026-04-22 22:17 -35.96585 -72.68971 24483 ft 428 kts 22°
2026-04-22 22:17 -35.93913 -72.67432 24872 ft 431 kts 22°
2026-04-22 22:18 -35.91191 -72.65867 25257 ft 433 kts 22°
2026-04-22 22:18 -35.88444 -72.64290 25629 ft 436 kts 22°
2026-04-22 22:18 -35.85686 -72.62706 25995 ft 438 kts 22°
2026-04-22 22:18 -35.82894 -72.61170 26347 ft 440 kts 17°
2026-04-22 22:19 -35.79960 -72.60151 26668 ft 438 kts
2026-04-22 22:19 -35.76954 -72.59474 27010 ft 439 kts
2026-04-22 22:19 -35.73931 -72.58849 27342 ft 441 kts
2026-04-22 22:19 -35.70892 -72.58217 27671 ft 444 kts
2026-04-22 22:20 -35.67833 -72.57565 27997 ft 446 kts
2026-04-22 22:20 -35.64772 -72.56908 28313 ft 448 kts
2026-04-22 22:20 -35.61691 -72.56243 28607 ft 451 kts
2026-04-22 22:20 -35.58597 -72.55570 28899 ft 453 kts
2026-04-22 22:21 -35.55486 -72.54894 29184 ft 455 kts
2026-04-22 22:21 -35.52353 -72.54218 29461 ft 457 kts
2026-04-22 22:21 -35.49218 -72.53543 29756 ft 458 kts
2026-04-22 22:21 -35.46071 -72.52860 30018 ft 460 kts
2026-04-22 22:22 -35.42953 -72.52187 30280 ft 462 kts
2026-04-22 22:22 -35.39780 -72.51505 30554 ft 463 kts
2026-04-22 22:22 -35.36612 -72.50819 30828 ft 464 kts
2026-04-22 22:22 -35.33384 -72.50122 31090 ft 465 kts
2026-04-22 22:23 -35.30233 -72.49442 31324 ft 466 kts
2026-04-22 22:23 -35.27035 -72.48753 31561 ft 467 kts
2026-04-22 22:23 -35.23828 -72.48064 31794 ft 468 kts
2026-04-22 22:23 -35.20625 -72.47374 32077 ft 467 kts
2026-04-22 22:24 -35.17429 -72.46686 32373 ft 465 kts
2026-04-22 22:24 -35.14246 -72.46002 32640 ft 464 kts
2026-04-22 22:24 -35.11068 -72.45318 32909 ft 463 kts
2026-04-22 22:24 -35.07902 -72.44637 33179 ft 461 kts
2026-04-22 22:25 -35.04748 -72.43958 33429 ft 460 kts
2026-04-22 22:25 -35.01602 -72.43283 33664 ft 458 kts
2026-04-22 22:25 -34.98463 -72.42619 33881 ft 457 kts
2026-04-22 22:25 -34.95330 -72.41955 34092 ft 457 kts
2026-04-22 22:26 -34.92202 -72.41285 34237 ft 456 kts
2026-04-22 22:26 -34.85966 -72.39960 34229 ft 454 kts
2026-04-22 22:27 -34.79775 -72.38638 34200 ft 453 kts
2026-04-22 22:27 -34.73560 -72.37321 34202 ft 453 kts
2026-04-22 22:28 -34.67352 -72.35997 34199 ft 453 kts
2026-04-22 22:28 -34.61142 -72.34683 34201 ft 452 kts
2026-04-22 22:29 -34.54943 -72.33369 34201 ft 452 kts
2026-04-22 22:29 -34.48785 -72.32076 34198 ft 452 kts
2026-04-22 22:30 -34.42576 -72.30768 34192 ft 452 kts
2026-04-22 22:30 -34.36376 -72.29456 34189 ft 451 kts
2026-04-22 22:31 -34.30187 -72.28158 34192 ft 452 kts
2026-04-22 22:31 -34.23988 -72.26852 34190 ft 451 kts
2026-04-22 22:32 -34.17801 -72.25556 34191 ft 451 kts
2026-04-22 22:32 -34.11668 -72.24247 34184 ft 450 kts
2026-04-22 22:33 -34.05490 -72.22980 34180 ft 450 kts
2026-04-22 22:33 -33.99313 -72.21683 34180 ft 451 kts
2026-04-22 22:34 -33.93135 -72.20383 34179 ft 450 kts
2026-04-22 22:34 -33.86958 -72.19112 34180 ft 451 kts
2026-04-22 22:35 -33.80788 -72.17830 34181 ft 450 kts
2026-04-22 22:35 -33.74614 -72.16553 34180 ft 450 kts
2026-04-22 22:36 -33.68438 -72.15276 34181 ft 449 kts
2026-04-22 22:36 -33.62275 -72.14010 34182 ft 449 kts
2026-04-22 22:37 -33.56146 -72.12738 34170 ft 449 kts
2026-04-22 22:37 -33.49979 -72.11465 34172 ft 448 kts
2026-04-22 22:38 -33.43829 -72.10197 34172 ft 448 kts
2026-04-22 22:38 -33.37667 -72.08924 34171 ft 448 kts
2026-04-22 22:39 -33.31528 -72.07663 34170 ft 447 kts
2026-04-22 22:39 -33.25432 -72.06410 34170 ft 446 kts
2026-04-22 22:40 -33.19308 -72.05163 34170 ft 446 kts
2026-04-22 22:40 -33.13193 -72.03911 34172 ft 445 kts
2026-04-22 22:41 -33.07090 -72.02666 34169 ft 445 kts
2026-04-22 22:41 -33.00996 -72.01419 34166 ft 444 kts
2026-04-22 22:42 -32.94905 -72.00169 34158 ft 443 kts
2026-04-22 22:42 -32.88873 -71.98943 34169 ft 442 kts
2026-04-22 22:43 -32.82819 -71.97715 34172 ft 441 kts
2026-04-22 22:43 -32.76786 -71.96498 34169 ft 440 kts
2026-04-22 22:44 -32.70756 -71.95280 34158 ft 439 kts
2026-04-22 22:44 -32.64726 -71.94057 34141 ft 439 kts
2026-04-22 22:45 -32.58709 -71.92847 34141 ft 438 kts
2026-04-22 22:45 -32.52693 -71.91632 34141 ft 438 kts
2026-04-22 22:46 -32.46684 -71.90423 34142 ft 438 kts
2026-04-22 22:46 -32.40671 -71.89212 34141 ft 438 kts
2026-04-22 22:47 -32.34719 -71.88020 34140 ft 436 kts
2026-04-22 22:47 -32.28732 -71.86824 34140 ft 436 kts
2026-04-22 22:48 -32.22750 -71.85617 34142 ft 436 kts
2026-04-22 22:48 -32.16767 -71.84431 34141 ft 436 kts
2026-04-22 22:49 -32.10785 -71.83229 34140 ft 436 kts
2026-04-22 22:49 -32.05812 -71.82235 34140 ft 436 kts
2026-04-22 22:50 -31.99823 -71.81043 34140 ft 436 kts
2026-04-22 22:50 -31.94906 -71.80062 34090 ft 436 kts
2026-04-22 22:51 -31.88911 -71.78834 34131 ft 436 kts
2026-04-22 22:51 -31.82924 -71.77678 34129 ft 435 kts 360°
2026-04-22 22:52 -31.76943 -71.76501 34129 ft 435 kts
2026-04-22 22:52 -31.71012 -71.75328 34131 ft 435 kts
2026-04-22 22:53 -31.65042 -71.74145 34130 ft 435 kts
2026-04-22 22:53 -31.59129 -71.72970 34014 ft 419 kts 360°
2026-04-22 22:53 -31.56290 -71.72406 33656 ft 410 kts 359°
2026-04-22 22:54 -31.53486 -71.71850 33106 ft 406 kts 360°
2026-04-22 22:54 -31.50715 -71.71303 32504 ft 403 kts 360°
2026-04-22 22:54 -31.47957 -71.70763 31905 ft 401 kts
2026-04-22 22:54 -31.45210 -71.70227 31290 ft 399 kts
2026-04-22 22:55 -31.42489 -71.69697 30680 ft 397 kts
2026-04-22 22:55 -31.39770 -71.69166 30075 ft 395 kts
2026-04-22 22:55 -31.34375 -71.68101 28908 ft 390 kts
2026-04-22 22:56 -31.31738 -71.67583 28357 ft 387 kts
2026-04-22 22:56 -31.29083 -71.67064 27806 ft 384 kts
2026-04-22 22:56 -31.26449 -71.66547 27252 ft 382 kts
2026-04-22 22:56 -31.23839 -71.66036 26707 ft 379 kts
2026-04-22 22:57 -31.21251 -71.65532 26164 ft 377 kts
2026-04-22 22:57 -31.18675 -71.65028 25761 ft 375 kts
2026-04-22 22:57 -31.16101 -71.64526 25464 ft 374 kts
2026-04-22 22:57 -31.13541 -71.64026 25199 ft 372 kts
2026-04-22 22:58 -31.10993 -71.63525 24942 ft 372 kts
2026-04-22 22:58 -31.08453 -71.62900 24627 ft 373 kts
2026-04-22 22:58 -31.05940 -71.62206 24190 ft 370 kts
2026-04-22 22:58 -31.03443 -71.61508 23716 ft 368 kts
2026-04-22 22:59 -31.00957 -71.60815 23239 ft 366 kts
2026-04-22 22:59 -30.98481 -71.60127 22763 ft 365 kts
2026-04-22 22:59 -30.96012 -71.59442 22275 ft 363 kts
2026-04-22 22:59 -30.93587 -71.58773 21781 ft 362 kts
2026-04-22 23:00 -30.91138 -71.58098 21278 ft 361 kts
2026-04-22 23:00 -30.88691 -71.57424 20780 ft 360 kts
2026-04-22 23:00 -30.86259 -71.56755 20304 ft 358 kts
2026-04-22 23:00 -30.83836 -71.56091 19835 ft 356 kts
2026-04-22 23:01 -30.81431 -71.55433 19378 ft 354 kts
2026-04-22 23:01 -30.79036 -71.54777 18930 ft 353 kts
2026-04-22 23:01 -30.76653 -71.54122 18482 ft 351 kts 10°
2026-04-22 23:01 -30.74281 -71.53473 18047 ft 350 kts 10°
2026-04-22 23:02 -30.71916 -71.52828 17626 ft 348 kts 10°
2026-04-22 23:02 -30.69566 -71.52185 17199 ft 344 kts 10°
2026-04-22 23:02 -30.67252 -71.51550 16770 ft 339 kts 10°
2026-04-22 23:02 -30.64970 -71.50925 16365 ft 334 kts 10°
2026-04-22 23:03 -30.62728 -71.50313 15974 ft 328 kts 11°
2026-04-22 23:03 -30.60525 -71.49712 15596 ft 322 kts 10°
2026-04-22 23:03 -30.58367 -71.49124 15225 ft 316 kts 11°
2026-04-22 23:03 -30.56241 -71.48546 14840 ft 311 kts 11°
2026-04-22 23:04 -30.54142 -71.47952 14460 ft 312 kts 14°
2026-04-22 23:04 -30.52173 -71.46869 14068 ft 317 kts 34°
2026-04-22 23:04 -30.50576 -71.45101 13711 ft 320 kts 44°
2026-04-22 23:04 -30.49113 -71.43194 13351 ft 320 kts 45°
2026-04-22 23:05 -30.47635 -71.41263 12980 ft 320 kts 45°
2026-04-22 23:05 -30.46146 -71.39348 12609 ft 321 kts 45°
2026-04-22 23:05 -30.44643 -71.37434 12222 ft 321 kts 45°
2026-04-22 23:05 -30.43150 -71.35541 11831 ft 315 kts 44°
2026-04-22 23:06 -30.41682 -71.33686 11432 ft 308 kts 45°
2026-04-22 23:06 -30.40242 -71.31869 11061 ft 303 kts 45°
2026-04-22 23:06 -30.38824 -71.30084 10685 ft 298 kts 45°
2026-04-22 23:06 -30.37440 -71.28340 10415 ft 290 kts 46°
2026-04-22 23:07 -30.36088 -71.26640 10131 ft 285 kts 46°
2026-04-22 23:07 -30.34752 -71.24962 9809 ft 283 kts 46°
2026-04-22 23:07 -30.33435 -71.23308 9459 ft 282 kts 47°
2026-04-22 23:07 -30.32107 -71.21637 9098 ft 281 kts 47°
2026-04-22 23:08 -30.30780 -71.19970 8746 ft 281 kts 47°
2026-04-22 23:08 -30.29456 -71.18307 8391 ft 281 kts 47°
2026-04-22 23:08 -30.28131 -71.16644 8038 ft 281 kts 47°
2026-04-22 23:08 -30.26809 -71.14985 7700 ft 281 kts 47°
2026-04-22 23:09 -30.25471 -71.13327 7500 ft 276 kts 45°
2026-04-22 23:09 -30.23962 -71.12077 7463 ft 260 kts 23°
2026-04-22 23:09 -30.22226 -71.11615 7196 ft 256 kts
2026-04-22 23:09 -30.20461 -71.11486 6861 ft 251 kts
2026-04-22 23:10 -30.18730 -71.11377 6521 ft 246 kts
2026-04-22 23:10 -30.17062 -71.11261 6314 ft 235 kts
2026-04-22 23:10 -30.15445 -71.11141 5976 ft 231 kts
2026-04-22 23:10 -30.13851 -71.11018 5623 ft 228 kts
2026-04-22 23:11 -30.12293 -71.10835 5517 ft 219 kts 13°
2026-04-22 23:11 -30.10977 -71.10196 5412 ft 200 kts 31°
2026-04-22 23:11 -30.09828 -71.09368 5135 ft 195 kts 32°
2026-04-22 23:11 -30.08708 -71.08566 4946 ft 181 kts 32°
2026-04-22 23:12 -30.07674 -71.07832 4840 ft 173 kts 32°
2026-04-22 23:12 -30.06650 -71.07118 4571 ft 171 kts 32°
2026-04-22 23:12 -30.05626 -71.06402 4517 ft 172 kts 31°
2026-04-22 23:12 -30.04595 -71.05690 4345 ft 172 kts 31°
2026-04-22 23:13 -30.03545 -71.05029 4078 ft 171 kts 22°
2026-04-22 23:13 -30.02397 -71.04670 3795 ft 171 kts
2026-04-22 23:13 -30.01227 -71.04613 3530 ft 170 kts 356°
2026-04-22 23:13 -30.00047 -71.04854 3360 ft 170 kts 345°
2026-04-22 23:14 -29.98968 -71.05362 3142 ft 169 kts 330°
2026-04-22 23:14 -29.98020 -71.06151 2820 ft 167 kts 318°
2026-04-22 23:14 -29.97238 -71.07135 2623 ft 167 kts 306°
2026-04-22 23:14 -29.96644 -71.08284 2651 ft 159 kts 296°
2026-04-22 23:15 -29.96199 -71.09388 2426 ft 147 kts 295°
2026-04-22 23:15 -29.95750 -71.10434 2200 ft 144 kts 295°
2026-04-22 23:15 -29.95310 -71.11446 2000 ft 142 kts 295°
2026-04-22 23:15 -29.94873 -71.12457 1793 ft 140 kts 295°
2026-04-22 23:16 -29.94437 -71.13450 1584 ft 138 kts 297°
2026-04-22 23:16 -29.94015 -71.14439 1385 ft 137 kts 295°
2026-04-22 23:16 -29.93591 -71.15429 1231 ft 139 kts 295°
2026-04-22 23:16 -29.93174 -71.16420 1042 ft 137 kts 295°
2026-04-22 23:17 -29.92748 -71.17397 833 ft 137 kts 297°
2026-04-22 23:17 -29.92320 -71.18377 649 ft 136 kts 296°
2026-04-22 23:17 -29.91902 -71.19350 480 ft 129 kts 295°
2026-04-22 23:17 -29.91628 -71.19991 481 ft 36 kts 295°
2026-04-22 23:18 -29.91592 -71.20077 483 ft 11 kts 296°
2026-04-22 23:18 -29.91557 -71.20161 480 ft 13 kts 296°
2026-04-22 23:18 -29.91527 -71.20232 482 ft 8 kts 294°
2026-04-22 23:18 -29.91526 -71.20238 479 ft 2 kts 279°
2026-04-22 23:19 -29.91538 -71.20265 486 ft 5 kts 223°
2026-04-22 23:19 -29.91573 -71.20287 479 ft 7 kts 207°
2026-04-22 23:19 -29.91603 -71.20305 479 ft 4 kts 207°
2026-04-22 23:19 -29.91607 -71.20337 486 ft 6 kts 297°
2026-04-22 23:20 -29.91588 -71.20383 481 ft 6 kts 295°
2026-04-22 23:20 -29.91582 -71.20413 479 ft 2 kts 242°
2026-04-22 23:20 -29.91598 -71.20430 481 ft 4 kts 211°
2026-04-22 23:20 -29.91611 -71.20438 486 ft 2 kts 208°
2026-04-22 23:21 -29.91619 -71.20443 486 ft 0 kts 207°
2026-04-22 23:21 -29.91622 -71.20445 486 ft 2 kts 208°